Regional Weather Roundup
Issued by NWS Columbia, SC

Home | Current Version | Previous Version | Text Only | Print | Product List | Glossary On
Versions: 1 2 3 4 5 6 7 8 9 10 11 12 13 14 15 16 17 18 19 20 21 22 23 24 25 26 27 28
000
ASUS42 KCAE 221010
RWRCAE
REGIONAL WEATHER ROUNDUP
NATIONAL WEATHER SERVICE COLUMBIA SC
600 AM EDT FRI SEP 22 2017

NOTE: "FAIR" INDICATES FEW OR NO CLOUDS BELOW 12,000 FEET WITH NO
SIGNIFICANT WEATHER AND/OR OBSTRUCTIONS TO VISIBILITY.

NOT ALL STATIONS ARE QUALITY CONTROLLED BY THE NATIONAL
WEATHER SERVICE. USE DATA WITH CAUTION...ESPECIALLY
DEWPOINT OBSERVATIONS.

SCZ001>056-GAZ040-063>065-077-221100-
...UPSTATE SOUTH CAROLINA...

CITY           SKY/WX    TMP DP  RH WIND       PRES   REMARKS
ANDERSON       CLEAR     69  65  86 NE3       30.06R
LIBERTY        SUNNY     63  63 100 N3        30.07R
SPARTANBURG    PTCLDY    68  63  83 NE3       30.07R
CLEMSON        CLEAR     70  68  93 N6        30.07S
GREENVILLE     CLEAR     71  64  78 N9        30.08R
GREENWOOD      CLOUDY    65  65 100 N3        30.07R
GREER          PTCLDY    70  65  84 NE5       30.07S
ROCK HILL        N/A    N/A N/A N/A MISG      30.08R
CHESTER        SUNNY     64  64 100 CALM      30.07S FOG
LAURENS        SUNNY     63  63 100 N3        30.06R


...CENTRAL SOUTH CAROLINA...

CITY           SKY/WX    TMP DP  RH WIND       PRES   REMARKS
COLUMBIA APT   CLEAR     71  66  84 CALM      30.03R
COLUMBIA OWENS CLEAR     69  66  90 CALM      30.04S
MCENTIRE ANGB  CLEAR     65  65 100 CALM      30.04R
ORANGEBURG     CLEAR     67  65  93 E3        30.03R
SUMTER SHAW    CLEAR     66  64  91 CALM      30.02R
NEWBERRY       SUNNY     66  66 100 CALM      30.08S
AIKEN          FAIR      64  64 100 CALM      30.08R
BARNWELL       FAIR      68  68 100 CALM      30.03S
MANNING        FAIR      64  59  82 CALM      30.04R HAZE
CAMDEN         PTSUNNY   66  64  94 CALM      30.05R
LANCASTER      SUNNY     64  64 100 CALM      30.06S FOG
WINNSBORO      SUNNY     66  64  94 CALM      30.05R


...EASTERN AND COASTAL SOUTH CAROLINA...

CITY           SKY/WX    TMP DP  RH WIND       PRES   REMARKS
MYRTLE BEACH   CLEAR     69  66  90 N8        30.04R
N MYRTLE BCH   CLEAR     68  66  93 NE7       30.03R
CONWAY         FAIR      64  64 100 CALM      30.04S FOG
MARION         FAIR      64  63  94 CALM      30.05R FOG
HARTSVILLE     FAIR      64  64 100 CALM      30.04S
FLORENCE       CLEAR     67  66  97 NE3       30.04R
DARLINGTON     CLEAR     65  65 100 CALM      30.05S FOG
CHARLESTON APT PTCLDY    67  67 100 N3        30.02R
MOUNT PLEASANT FAIR      70  68  94 CALM      30.02R FOG
WALTERBORO     SUNNY     64  64 100 CALM      30.03S
BEAUFORT       CLEAR     72  71  97 CALM      30.01R


...EASTERN GEORGIA...

CITY           SKY/WX    TMP DP  RH WIND       PRES   REMARKS
AUGUSTA BUSH F CLEAR     67  65  93 CALM      30.03R
AUGUSTA DANIEL CLEAR     71  68  90 SE3       30.04R
THOMSON        PTCLDY    66  64  96 CALM      30.09R FOG
WASHINGTON     FAIR     N/A N/A N/A CALM      30.04R
CLAXTON        FAIR      69  68  98 CALM      30.02R FOG
SYLVANIA       SUNNY     67  67 100 CALM      30.04R FOG
STATESBORO     CLEAR     67  67 100 CALM      30.02R
SAVANNAH       PTCLDY    70  69  97 N3        30.02R


...SOUTHERN NORTH CAROLINA...

CITY           SKY/WX    TMP DP  RH WIND       PRES   REMARKS
CHARLOTTE      CLEAR     68  67  96 CALM      30.07S
MONROE         CLEAR     66  66 100 NE5       30.07R FOG
WADESBORO      SUNNY     63  60  91 CALM      30.06R FOG
RUTHERFORDTON  CLEAR     65  65 100 CALM      30.10R
ASHEVILLE      CLOUDY    60  59  96 CALM      30.16R

$$




USA.gov is the U.S. government's official web portal to all federal, state and local government web resources and services.